FW8057 Weather Reports


time (UTC)temp
F
wind
direction
speed
knots
gust
knots
rain 1hr
in
rain 24hr
in
rain mn
in
humidity
%
barometer
mb
20260510190313 82 227 0.9 1.7 0.00 0.00 0.00 39 1013.7
20260510185809 83 296 2.6 2.6 0.00 0.00 0.00 38 1013.6
20260510185307 84 228 1.7 1.7 0.00 0.00 0.00 40 1013.8
20260510184804 83 219 0.0 0.0 0.00 0.00 0.00 41 1013.8
20260510184301 83 328 1.7 1.7 0.00 0.00 0.00 39 1013.9
20260510183755 83 300 0.9 2.6 0.00 0.00 0.00 44 1013.9
20260510183250 81 206 0.0 0.0 0.00 0.00 0.00 46 1014.0
20260510182747 82 187 0.9 0.9 0.00 0.00 0.00 46 1014.0
20260510182243 83 179 0.0 0.9 0.00 0.00 0.00 43 1014.0
20260510181740 83 237 0.9 0.9 0.00 0.00 0.00 43 1014.1
20260510181237 81 301 1.7 1.7 0.00 0.00 0.00 46 1014.4
20260510180732 80 210 0.0 0.9 0.00 0.00 0.00 46 1014.1
20260510180230 82 291 1.7 1.7 0.00 0.00 0.00 43 1013.9
20260510175727 81 197 0.9 0.9 0.00 0.00 0.00 49 1014.3
20260510175222 80 179 0.9 0.9 0.00 0.00 0.00 50 1014.3
20260510174720 78 195 0.0 0.0 0.00 0.00 0.00 51 1014.2
20260510174217 79 211 0.9 1.7 0.00 0.00 0.00 49 1014.2
20260510173713 79 190 0.9 0.9 0.00 0.00 0.00 47 1014.2
20260510173209 80 216 0.9 0.9 0.00 0.00 0.00 48 1014.0
20260510172704 81 211 0.0 0.0 0.00 0.00 0.00 49 1014.2
20260510172200 80 229 0.0 0.0 0.00 0.00 0.00 47 1014.3
20260510171657 80 210 0.0 0.0 0.00 0.00 0.00 50 1014.3
20260510171155 82 234 1.7 1.7 0.00 0.00 0.00 46 1014.0
20260510170651 83 234 0.9 0.9 0.00 0.00 0.00 46 1014.4
20260510170148 83 205 0.0 0.9 0.00 0.00 0.00 49 1014.4
20260510165644 82 190 0.9 0.9 0.00 0.00 0.00 48 1014.6
20260510165139 81 230 0.0 0.9 0.00 0.00 0.00 45 1014.5
20260510164637 81 202 0.0 0.9 0.00 0.00 0.00 45 1014.6
20260510164134 80 218 0.9 1.7 0.00 0.00 0.00 48 1014.5
20260510163629 80 328 2.6 2.6 0.00 0.00 0.00 50 1014.4
20260510163125 80 72 0.9 1.7 0.00 0.00 0.00 51 1014.4
20260510162620 80 178 1.7 1.7 0.00 0.00 0.00 47 1014.6
20260510162117 79 202 0.0 0.0 0.00 0.00 0.00 48 1014.8
20260510161612 78 186 0.9 1.7 0.00 0.00 0.00 49 1014.9
20260510161110 79 218 0.9 0.9 0.00 0.00 0.00 48 1014.7
20260510160607 79 201 1.7 2.6 0.00 0.00 0.00 50 1014.8
20260510160106 79 224 1.7 1.7 0.00 0.00 0.00 49 1014.6
20260510155603 80 357 2.6 2.6 0.00 0.00 0.00 51 1014.7
20260510155100 79 192 0.0 0.0 0.00 0.00 0.00 53 1015.0
20260510154555 79 236 0.9 0.9 0.00 0.00 0.00 54 1014.9
20260510154050 78 185 1.7 1.7 0.00 0.00 0.00 52 1014.9
20260510153545 78 333 2.6 4.3 0.00 0.00 0.00 54 1015.2
20260510153043 78 293 1.7 1.7 0.00 0.00 0.00 53 1015.3
20260510152539 78 191 0.0 0.0 0.00 0.00 0.00 54 1015.2
20260510152036 77 168 0.0 0.0 0.00 0.00 0.00 58 1015.2
20260510151532 77 104 0.9 1.7 0.00 0.00 0.00 57 1014.7
20260510151030 77 154 0.9 0.9 0.00 0.00 0.00 56 1015.0
20260510150525 77 192 0.0 0.9 0.00 0.00 0.00 59 1014.8
20260510150021 76 99 0.9 0.9 0.00 0.00 0.00 64 1014.9
20260510145518 75 326 1.7 1.7 0.00 0.00 0.00 64 1014.9
20260510145014 75 348 2.6 4.3 0.00 0.00 0.00 66 1015.0
20260510144511 76 212 0.0 0.9 0.00 0.00 0.00 67 1014.8
20260510144007 75 322 2.6 2.6 0.00 0.00 0.00 67 1014.6
20260510143503 73 194 0.9 0.9 0.00 0.00 0.00 68 1014.8
20260510142959 74 322 2.6 2.6 0.00 0.00 0.00 67 1014.9
20260510142456 73 233 1.7 2.6 0.00 0.00 0.00 68 1014.9
20260510141953 73 204 0.9 1.7 0.00 0.00 0.00 69 1014.7
20260510141449 73 243 1.7 1.7 0.00 0.00 0.00 68 1015.0
20260510140947 73 315 2.6 2.6 0.00 0.00 0.00 70 1015.0
20260510140443 73 334 0.9 0.9 0.00 0.00 0.00 70 1014.8
20260510135942 73 8 1.7 1.7 0.00 0.00 0.00 70 1014.6
20260510135438 73 209 0.0 0.0 0.00 0.00 0.00 73 1015.0
20260510134935 73 170 0.9 1.7 0.00 0.00 0.00 73 1015.0
20260510134432 71 103 1.7 1.7 0.00 0.00 0.00 73 1014.9
20260510133928 72 29 2.6 2.6 0.00 0.00 0.00 75 1014.9
20260510133425 71 242 1.7 1.7 0.00 0.00 0.00 75 1015.0
20260510132920 71 307 1.7 1.7 0.00 0.00 0.00 78 1014.8
20260510132418 70 208 0.9 0.9 0.00 0.00 0.00 80 1014.7
20260510131915 71 229 1.7 1.7 0.00 0.00 0.00 80 1014.4
20260510131413 70 306 1.7 1.7 0.00 0.00 0.00 81 1014.6
20260510130909 70 204 0.9 0.9 0.00 0.00 0.00 82 1014.4
20260510130406 69 211 0.9 0.9 0.00 0.00 0.00 84 1014.7
20260510125903 69 209 0.9 0.9 0.00 0.00 0.00 86 1014.6
20260510125358 68 208 0.9 1.7 0.00 0.00 0.00 87 1014.3
20260510124856 67 339 2.6 2.6 0.00 0.00 0.00 88 1014.4
20260510124352 67 332 2.6 2.6 0.00 0.00 0.00 89 1014.3
20260510123848 66 230 1.7 1.7 0.00 0.00 0.00 91 1014.3
20260510123344 66 267 1.7 1.7 0.00 0.00 0.00 92 1014.5
20260510122840 66 239 0.9 0.9 0.00 0.00 0.00 94 1014.3
20260510122336 65 211 0.9 0.9 0.00 0.00 0.00 95 1014.3
20260510121833 65 205 0.0 0.0 0.00 0.00 0.00 95 1014.2
20260510121331 65 209 0.0 0.0 0.00 0.00 0.00 95 1014.2
20260510120827 64 208 0.0 0.0 0.00 0.00 0.00 95 1014.2
20260510120325 64 207 0.0 0.0 0.00 0.00 0.00 95 1014.3
20260510115820 64 216 0.9 0.9 0.00 0.00 0.00 95 1013.9
20260510115318 64 212 0.9 0.9 0.00 0.00 0.00 95 1014.1
20260510114813 63 192 0.0 0.9 0.00 0.00 0.00 95 1013.8
20260510114311 63 248 0.9 0.9 0.00 0.00 0.00 95 1013.8
20260510113805 63 207 0.0 0.0 0.00 0.00 0.00 95 1013.8
20260510113303 62 206 0.0 0.0 0.00 0.00 0.00 95 1013.7
20260510112759 62 206 0.0 0.0 0.00 0.00 0.00 95 1013.7
20260510112256 62 206 0.0 0.0 0.00 0.00 0.00 95 1013.6
20260510111752 62 206 0.0 0.0 0.00 0.00 0.00 95 1013.4
20260510111249 61 206 0.0 0.0 0.00 0.00 0.00 95 1013.4
20260510110748 61 206 0.0 0.0 0.00 0.00 0.00 95 1013.4
20260510110247 61 206 0.0 0.0 0.00 0.00 0.00 95 1013.4
20260510105746 61 206 0.0 0.0 0.00 0.00 0.00 95 1013.2
20260510105241 61 206 0.0 0.0 0.00 0.00 0.00 95 1013.0
20260510104738 61 207 0.0 0.0 0.00 0.00 0.00 95 1012.8
20260510104236 61 207 0.0 0.0 0.00 0.00 0.00 95 1013.1
20260510103731 61 207 0.0 0.0 0.00 0.00 0.00 95 1013.0
20260510103229 61 207 0.0 0.0 0.00 0.00 0.00 95 1012.8
20260510102728 61 225 0.9 0.9 0.00 0.00 0.00 95 1012.8
20260510102224 60 209 0.0 0.0 0.00 0.00 0.00 95 1012.7
20260510101722 60 202 0.0 0.0 0.00 0.00 0.00 95 1012.5
20260510101221 60 202 0.0 0.0 0.00 0.00 0.00 95 1012.3
20260510100716 60 202 0.0 0.0 0.00 0.00 0.00 95 1012.4
20260510100215 61 202 0.0 0.0 0.00 0.00 0.00 95 1012.3
20260510095709 61 202 0.0 0.0 0.00 0.00 0.00 95 1012.2
20260510095205 61 202 0.0 0.0 0.00 0.00 0.00 95 1012.1
20260510094703 61 202 0.0 0.0 0.00 0.00 0.00 95 1012.5
20260510094200 61 202 0.0 0.0 0.00 0.00 0.00 95 1012.3
20260510093655 61 203 0.0 0.0 0.00 0.00 0.00 95 1012.2
20260510093153 61 202 0.0 0.0 0.00 0.00 0.00 95 1012.1
20260510092649 61 202 0.0 0.0 0.00 0.00 0.00 95 1012.0
20260510092145 61 204 0.0 0.0 0.00 0.00 0.00 95 1012.0
20260510091641 61 204 0.0 0.0 0.00 0.00 0.00 95 1011.9
20260510091137 61 205 0.0 0.0 0.00 0.00 0.00 95 1011.5
20260510090634 61 206 0.0 0.0 0.00 0.00 0.00 95 1011.7
20260510090130 61 206 0.0 0.0 0.00 0.00 0.00 95 1011.6
20260510085626 61 206 0.0 0.0 0.00 0.00 0.00 95 1011.5
20260510085121 62 206 0.0 0.0 0.00 0.00 0.00 95 1011.3
20260510084618 61 216 0.9 0.9 0.00 0.00 0.00 95 1011.3
20260510084115 61 218 0.9 0.9 0.00 0.00 0.00 95 1011.3
20260510083611 61 195 0.0 0.0 0.00 0.00 0.00 95 1011.4
20260510083107 61 194 0.0 0.0 0.00 0.00 0.00 95 1011.3
20260510082604 61 194 0.0 0.0 0.00 0.00 0.00 95 1011.3
20260510082100 60 194 0.0 0.0 0.00 0.00 0.00 95 1011.6
20260510081555 61 194 0.0 0.0 0.00 0.00 0.00 95 1011.5
20260510081051 61 195 0.0 0.0 0.00 0.00 0.00 95 1011.5
20260510080550 60 195 0.0 0.0 0.00 0.00 0.00 95 1011.3
20260510080047 60 195 0.0 0.0 0.00 0.00 0.00 95 1011.3
20260510075544 60 195 0.0 0.0 0.00 0.00 0.00 95 1011.3
20260510075041 60 194 0.0 0.0 0.00 0.00 0.00 95 1011.3
20260510074539 60 194 0.0 0.0 0.00 0.00 0.00 95 1011.1
20260510074034 60 194 0.0 0.0 0.00 0.00 0.00 95 1011.2
20260510073530 60 194 0.0 0.0 0.00 0.00 0.00 95 1011.2
20260510073027 60 194 0.0 0.0 0.00 0.00 0.00 95 1011.1
20260510072524 60 194 0.0 0.0 0.00 0.00 0.00 95 1011.4
20260510072019 60 194 0.0 0.0 0.00 0.00 0.00 95 1011.3
20260510071516 61 195 0.0 0.0 0.00 0.00 0.00 95 1011.1
20260510071015 61 195 0.0 0.0 0.00 0.00 0.00 95 1011.1
20260510070511 60 194 0.0 0.0 0.00 0.00 0.00 95 1010.9
20260510070008 60 194 0.0 0.0 0.00 0.00 0.00 95 1011.2
20260510065504 60 194 0.0 0.0 0.00 0.00 0.00 95 1011.4
20260510065000 61 194 0.0 0.0 0.00 0.00 0.00 95 1011.3
20260510064457 61 194 0.0 0.0 0.00 0.00 0.00 95 1011.3
20260510063953 61 195 0.0 0.0 0.00 0.00 0.00 95 1011.2
20260510063450 61 195 0.0 0.0 0.00 0.00 0.00 95 1011.1
20260510062948 61 195 0.0 0.0 0.00 0.00 0.00 95 1011.2
20260510062443 61 195 0.0 0.0 0.00 0.00 0.00 95 1011.0
20260510061938 61 194 0.0 0.0 0.00 0.00 0.00 95 1010.9
20260510061435 61 194 0.0 0.0 0.00 0.00 0.00 95 1011.0
20260510060931 61 194 0.0 0.0 0.00 0.00 0.00 95 1011.2
20260510060428 61 194 0.0 0.0 0.00 0.00 0.00 95 1011.2
20260510055924 61 194 0.0 0.0 0.00 0.00 0.00 95 1011.3
20260510055420 61 194 0.0 0.0 0.00 0.00 0.00 95 1011.3
20260510054919 61 194 0.0 0.0 0.00 0.00 0.00 95 1011.7
20260510054414 61 194 0.0 0.0 0.00 0.00 0.00 95 1011.4
20260510053909 61 195 0.0 0.0 0.00 0.00 0.00 95 1011.6
20260510053405 61 195 0.0 0.0 0.00 0.00 0.00 95 1011.4
20260510052901 61 195 0.0 0.0 0.00 0.00 0.00 95 1011.5
20260510052357 61 194 0.0 0.0 0.00 0.00 0.00 95 1011.6
20260510051854 61 194 0.0 0.0 0.00 0.00 0.00 95 1011.7
20260510051350 61 194 0.0 0.0 0.00 0.00 0.00 95 1011.5
20260510050847 61 194 0.0 0.0 0.00 0.00 0.00 95 1011.8
20260510050344 61 194 0.0 0.0 0.00 0.00 0.00 95 1011.7
20260510045841 61 194 0.0 0.0 0.00 0.00 0.00 95 1011.6
20260510045337 61 194 0.0 0.0 0.00 0.00 0.00 95 1012.1
20260510044835 61 194 0.0 0.0 0.00 0.00 0.00 95 1011.8
20260510044331 62 194 0.0 0.0 0.00 0.00 0.00 95 1012.0
20260510043828 61 194 0.0 0.0 0.00 0.00 0.00 95 1011.7
20260510043324 62 194 0.0 0.0 0.00 0.00 0.00 95 1011.8
20260510042822 62 195 0.0 0.0 0.00 0.00 0.00 95 1011.9
20260510042318 62 195 0.0 0.0 0.00 0.00 0.00 95 1011.6
20260510041814 62 195 0.0 0.0 0.00 0.00 0.00 95 1011.8
20260510041311 62 195 0.0 0.0 0.00 0.00 0.00 95 1011.7
20260510040809 62 195 0.0 0.0 0.00 0.00 0.00 95 1011.8
20260510040305 62 195 0.0 0.0 0.00 0.00 0.00 95 1011.7
20260510035801 62 195 0.0 0.0 0.00 0.00 0.00 95 1011.6
20260510035256 62 194 0.0 0.0 0.00 0.00 0.00 95 1011.6
20260510034752 62 194 0.0 0.0 0.00 0.00 0.00 95 1011.7
20260510034250 62 194 0.0 0.0 0.00 0.00 0.00 95 1011.4
20260510033747 62 194 0.0 0.0 0.00 0.00 0.00 95 1011.6
20260510033244 62 194 0.0 0.0 0.00 0.00 0.00 95 1011.3
20260510032740 62 194 0.0 0.0 0.00 0.00 0.00 95 1011.5
20260510032237 62 194 0.0 0.0 0.00 0.00 0.00 95 1011.6
20260510031732 62 194 0.0 0.0 0.00 0.00 0.00 95 1011.5
20260510031228 62 194 0.0 0.0 0.00 0.00 0.00 95 1011.4
20260510030727 62 194 0.0 0.0 0.00 0.00 0.00 95 1011.5
20260510030225 62 194 0.0 0.0 0.00 0.00 0.00 95 1011.4
20260510025722 62 194 0.0 0.0 0.00 0.00 0.00 95 1011.4
20260510025219 62 194 0.0 0.0 0.00 0.00 0.00 95 1011.3
20260510024716 62 194 0.0 0.0 0.00 0.00 0.00 95 1011.4
20260510024213 62 194 0.0 0.0 0.00 0.00 0.00 95 1011.5
20260510023708 62 194 0.0 0.0 0.00 0.00 0.00 95 1011.1
20260510023206 62 194 0.0 0.0 0.00 0.00 0.00 95 1011.2
20260510022702 62 194 0.0 0.0 0.00 0.00 0.00 94 1011.4
20260510022156 63 194 0.0 0.0 0.00 0.00 0.00 94 1011.0
20260510021652 63 194 0.0 0.0 0.00 0.00 0.00 94 1011.4
20260510021150 63 194 0.0 0.0 0.00 0.00 0.00 94 1011.3
20260510020644 63 194 0.0 0.0 0.00 0.00 0.00 94 1011.1
20260510020139 63 194 0.0 0.0 0.00 0.00 0.00 94 1011.1
20260510015636 63 194 0.0 0.0 0.00 0.00 0.00 94 1011.1
20260510015133 63 194 0.0 0.0 0.00 0.00 0.00 93 1011.4
20260510014627 63 194 0.0 0.0 0.00 0.00 0.00 93 1011.1
20260510014125 63 194 0.0 0.0 0.00 0.00 0.00 93 1011.1
20260510013625 64 194 0.0 0.0 0.00 0.00 0.00 92 1010.6
20260510013121 64 194 0.0 0.0 0.00 0.00 0.00 92 1010.5
20260510012620 64 194 0.0 0.0 0.00 0.00 0.00 92 1010.5
20260510012117 64 194 0.0 0.0 0.00 0.00 0.00 92 1010.2
20260510011616 64 194 0.0 0.0 0.00 0.00 0.00 91 1010.3
20260510011113 64 194 0.0 0.0 0.00 0.00 0.00 91 1010.3
20260510010609 65 194 0.0 0.0 0.00 0.00 0.00 91 1010.4
20260510010107 65 194 0.0 0.0 0.00 0.00 0.00 90 1010.3
20260510005602 65 194 0.0 0.0 0.00 0.00 0.00 90 1010.4
20260510005100 66 194 0.0 0.0 0.00 0.00 0.00 89 1010.2
20260510004557 66 194 0.0 0.0 0.00 0.00 0.00 88 1010.1
20260510004055 66 194 0.0 0.0 0.00 0.00 0.00 87 1010.0
20260510003552 66 194 0.0 0.0 0.00 0.00 0.00 87 1010.1
20260510003047 67 194 0.0 0.0 0.00 0.00 0.00 86 1010.2
20260510002543 67 194 0.0 0.0 0.00 0.00 0.00 86 1010.1
20260510002040 68 194 0.0 0.0 0.00 0.00 0.00 85 1010.1
20260510001537 68 194 0.0 0.0 0.00 0.00 0.00 85 1010.0
20260510001036 68 194 0.0 0.0 0.00 0.00 0.00 84 1010.2
20260510000530 68 194 0.0 0.0 0.00 0.00 0.00 83 1010.2
20260510000027 69 194 0.0 0.0 0.00 0.00 0.00 83 1009.9
20260509235524 69 194 0.0 0.0 0.00 0.00 0.00 82 1010.2
20260509235021 69 194 0.0 0.0 0.00 0.00 0.00 82 1009.9
20260509234517 70 210 0.0 0.0 0.00 0.00 0.00 82 1010.0
20260509234015 70 209 0.0 0.0 0.00 0.00 0.00 81 1009.9
20260509233512 71 210 0.0 0.0 0.00 0.00 0.00 80 1010.0
20260509233010 71 210 0.0 0.0 0.00 0.00 0.00 80 1009.6
20260509232506 71 209 0.0 0.0 0.00 0.00 0.00 79 1009.5
20260509232002 71 209 0.0 0.0 0.00 0.00 0.00 78 1009.4
20260509231459 72 209 0.0 0.0 0.00 0.00 0.00 78 1009.4
20260509230957 72 206 0.0 0.0 0.00 0.00 0.00 78 1009.4
20260509230453 72 211 0.0 0.0 0.00 0.00 0.00 77 1009.5
20260509225950 72 224 0.9 0.9 0.00 0.00 0.00 77 1009.4
20260509225446 72 213 0.0 0.0 0.00 0.00 0.00 78 1009.4
20260509224942 72 210 0.0 0.0 0.00 0.00 0.00 77 1009.4
20260509224437 72 210 0.0 0.0 0.00 0.00 0.00 76 1009.3
20260509223935 72 245 1.7 1.7 0.00 0.00 0.00 76 1009.3
20260509223431 72 214 0.0 0.0 0.00 0.00 0.00 76 1009.3
20260509222929 72 213 0.0 0.9 0.00 0.00 0.00 75 1009.5
20260509222424 73 216 0.0 0.0 0.00 0.00 0.00 75 1009.5
20260509221920 73 206 0.0 0.0 0.00 0.00 0.00 76 1009.4
20260509221417 73 210 0.0 0.9 0.00 0.00 0.00 76 1009.4
20260509220912 72 211 0.0 0.0 0.00 0.00 0.00 76 1009.6
20260509220408 72 205 0.0 0.9 0.00 0.00 0.00 76 1009.7
20260509215904 73 212 0.9 0.9 0.00 0.00 0.00 75 1009.5
20260509215400 73 209 0.0 0.0 0.00 0.00 0.00 75 1009.2
20260509214858 73 205 0.0 0.0 0.00 0.00 0.00 75 1009.4
20260509214355 73 224 0.9 0.9 0.00 0.00 0.00 74 1009.3
20260509213852 73 211 0.9 0.9 0.00 0.00 0.00 74 1009.4
20260509213347 73 206 0.0 0.9 0.00 0.00 0.00 74 1009.3
20260509212845 73 209 0.9 2.6 0.00 0.00 0.00 74 1009.3
20260509212343 72 247 0.9 0.9 0.00 0.00 0.00 75 1009.3
20260509211838 72 209 0.0 0.9 0.00 0.00 0.00 75 1009.3
20260509211334 72 224 0.9 1.7 0.00 0.00 0.00 75 1009.4
20260509210831 72 226 1.7 1.7 0.00 0.00 0.00 75 1009.4
20260509210329 72 157 0.9 0.9 0.00 0.00 0.00 74 1009.3
20260509205828 73 205 0.9 1.7 0.00 0.00 0.00 73 1009.4
20260509205323 73 133 0.0 1.7 0.00 0.00 0.00 73 1009.2
20260509204820 73 218 0.0 0.9 0.00 0.00 0.00 71 1009.1
20260509204316 73 202 0.0 0.9 0.00 0.00 0.00 73 1009.0
20260509203812 73 262 1.7 2.6 0.00 0.00 0.00 73 1009.2
20260509203309 73 208 0.0 0.0 0.00 0.00 0.00 75 1009.4
20260509202805 72 216 0.0 0.0 0.00 0.00 0.00 75 1009.1
20260509202301 71 246 1.7 1.7 0.00 0.00 0.00 75 1009.3
20260509201801 71 243 2.6 2.6 0.00 0.00 0.00 76 1009.5
20260509201258 71 206 0.9 0.9 0.00 0.00 0.00 76 1009.6
20260509200754 71 213 0.0 0.9 0.00 0.00 0.00 77 1009.5
20260509200250 71 205 0.0 0.0 0.00 0.00 0.00 77 1009.3
20260509195746 71 212 0.9 0.9 0.00 0.00 0.00 76 1009.8
20260509195241 71 219 0.9 0.9 0.00 0.00 0.00 76 1009.6
20260509194736 71 186 0.9 0.9 0.00 0.00 0.00 75 1009.4
20260509194233 71 214 0.0 0.9 0.00 0.00 0.00 74 1009.7
20260509193730 71 213 0.9 0.9 0.00 0.00 0.00 74 1009.6
20260509193229 71 204 0.0 0.9 0.00 0.00 0.00 74 1009.6
20260509192726 71 216 0.9 0.9 0.00 0.00 0.00 74 1009.9
20260509192221 71 208 0.0 0.0 0.00 0.00 0.00 74 1009.9
20260509191716 71 297 1.7 1.7 0.00 0.00 0.00 73 1010.0
20260509191213 71 226 0.9 0.9 0.00 0.00 0.00 73 1009.9